loading
DOY 175 | 2024-06-23T11:57:37Z

STARLINK-31924, 59904

Orbit data source: Space-Track

STARLINK-31924, 59904 is a payload satellite owned by SpaceX/Seattle (US) in LEO that was launched on Tue, 28 May 2024 UTC via a Falcon 9 launch vehicle from the Air Force Eastern Test Range (AFETR). Payloads include a variety of satellites, spacecraft, and rockets equipped with specific instruments for various scientific and technological missions. These include communications satellites like Starlink; space stations such as the ISS; scientific satellites like the Hubble; Earth observation satellites from companies like Planet Labs, Umbra, and HawkEye 360; GPS; miniature CubeSats for education and research; and military/defense satellites.

Loading next visibility...
Loading greatness...
STARLINK-31924 details
NORAD ID59904
COSPAR ID
2024-100V
Orbit
LEO
Last TLE update9 hours ago
Origin
Flag of USSpaceX/Seattle (US)
ManufacturerSpaceX/Seattle
BusStarlink V2M
MotorUnknown
Mass750 kg wet, ~700 kg dry
Launch date (UTC)
2024-05-28 (4 weeks ago)
Launch vehicle
Falcon 9
Launch site
Air Force Eastern Test Range (AFETR)
Object type
Payload
Rocket body
Debris
Radar Cross SectionLarge (>1 m²)
Predictive object data (real-time)
Latitude-41.63223°
Longitude15.55526°
Altitude426.346 km
Speed7.657 km/s
Apparent Right ascension17h 22m 55s
Apparent Declination-82° 51' 35"
Sunlit
Object is in full shadow
Predictive observer data (real-time)
Local Sidereal Time23:05:44
Azimuth189.18° SSW
Elevation-39.017°
Doppler factor1
Orbital elements
Apogee418.473 km
Perigee415.607 km
Semi-major axis6,795.177 km
Eccentricity0.0002109
Inclination43.001°
RAAN85.0405°
Arg. of periapsis252.8159°
True anomaly107.27008°
Mean anomaly107.247°
Mean motion3.87473 °/min
BSTAR-4.084e-7
Period92.91 mins
Definitive object data (Epoch: 2024-06-23T03:07:50.674Z)
Latitude-0.00004°
Longitude126.29547°
Altitude415.274 km
Speed7.663 km/s
True Right ascension05h 40m 09s
True Declination0° 00' 00"
Sunlit
Object was in daylight at TLE epoch
TLE from 9 hours ago
0 STARLINK-31924
1 59904U 24100V   24175.13044762 -.00000366  00000-0 -40840-6 0  9999
2 59904  43.0010  85.0405 0002109 252.8159 107.2470 15.50564811  5140
Epoch: 2024-06-23T03:07Z
No data available

STARLINK-31924 Visibility forecast

Observer location: 39.9160978°, -105.1181434, 0m alt.

STARLINK-31924 is not visible in the next 10 days
Span
Click to sort rows by Start time (UTC) header in descending order
Start Az.
Max El. time (UTC)
Max El. Az.
Max El.
End time (UTC)
End Az.